N9EX Weather Reports


Display with metric or nautical units.
time (UTC)temp
F
wind
direction
speed
MPH
gust
MPH
rain 1hr
in
rain 24hr
in
rain mn
in
humidity
%
barometer
mb
20260503185056 72 220 5.0 8.0 0.00 0.00 0.00 55 1014.4
20260503184613 72 286 3.0 7.0 0.00 0.00 0.00 56 1014.3
20260503184056 72 197 2.0 7.0 0.00 0.00 0.00 57 1014.4
20260503183555 72 218 3.0 7.0 0.00 0.00 0.00 57 1014.5
20260503183101 72 236 2.0 8.0 0.00 0.00 0.00 59 1014.5
20260503182555 71 190 4.0 8.0 0.00 0.00 0.00 66 1014.6
20260503182055 71 227 2.0 5.0 0.00 0.00 0.00 59 1014.6
20260503181558 71 159 1.0 7.0 0.00 0.00 0.00 59 1014.6
20260503181056 71 167 2.0 7.0 0.00 0.00 0.00 60 1014.7
20260503180556 70 191 2.0 7.0 0.00 0.00 0.00 60 1014.7
20260503180058 70 197 2.0 7.0 0.00 0.00 0.00 60 1014.8
20260503175555 69 223 3.0 7.0 0.00 0.00 0.00 59 1014.9
20260503175056 69 203 3.0 7.0 0.00 0.00 0.00 59 1014.9
20260503174556 70 207 2.0 7.0 0.00 0.00 0.00 65 1015.0
20260503174054 69 160 2.0 6.0 0.00 0.00 0.00 59 1015.0
20260503173555 69 221 3.0 6.0 0.00 0.00 0.00 61 1015.1
20260503173056 69 217 1.0 4.0 0.00 0.00 0.00 59 1015.1
20260503172554 69 213 1.0 7.0 0.00 0.00 0.00 59 1015.1
20260503172055 68 199 1.0 7.0 0.00 0.00 0.00 59 1015.2
20260503171611 68 294 3.0 7.0 0.00 0.00 0.00 65 1015.3
20260503171059 70 266 1.0 5.0 0.00 0.00 0.00 55 1015.3
20260503170554 69 0 0.0 8.0 0.00 0.00 0.00 57 1015.1
20260503170105 68 0 2.0 8.0 0.00 0.00 0.00 58 1015.2
20260503150553 58 0 0.0 0.0 0.00 0.00 0.00 79 1015.5
20260503131058 47 0 0.0 0.0 0.00 0.00 0.00 90 1015.4
20260503130557 47 0 0.0 0.0 0.00 0.00 0.00 89 1015.4
20260503110554 49 0 0.0 0.0 0.00 0.00 0.00 88 1015.7
20260503090110 51 0 0.0 0.0 0.00 0.00 0.00 87 1015.8
20260503081552 52 0 0.0 0.0 0.00 0.00 0.00 86 1015.9
20260503081054 52 0 0.0 0.0 0.00 0.00 0.00 85 1015.9
20260503080552 52 0 0.0 0.0 0.00 0.00 0.00 85 1015.9
20260503080109 52 0 0.0 0.0 0.00 0.00 0.00 85 1015.7
20260503072553 53 0 0.0 0.0 0.00 0.00 0.00 84 1015.6
20260503072054 53 0 0.0 0.0 0.00 0.00 0.00 84 1015.6
20260503071608 53 0 0.0 0.0 0.00 0.00 0.00 84 1015.5
20260503071052 53 0 0.0 0.0 0.00 0.00 0.00 83 1015.6
20260503070553 54 0 0.0 0.0 0.00 0.00 0.00 83 1015.7
20260503055053 57 0 0.0 0.0 0.00 0.00 0.00 77 1015.4
20260503054600 57 0 0.0 0.0 0.00 0.00 0.00 76 1015.5
20260503054057 57 0 0.0 0.0 0.00 0.00 0.00 76 1015.5
20260503053553 58 0 0.0 0.0 0.00 0.00 0.00 75 1015.5
20260503053059 58 0 0.0 0.0 0.00 0.00 0.00 75 1015.6
20260503052553 58 0 0.0 0.0 0.00 0.00 0.00 75 1015.5
20260503052056 58 0 0.0 0.0 0.00 0.00 0.00 74 1015.6
20260503051557 59 0 0.0 0.0 0.00 0.00 0.00 73 1015.5
20260503051053 59 0 0.0 0.0 0.00 0.00 0.00 72 1015.5
20260503050555 59 0 0.0 0.0 0.00 0.00 0.00 72 1015.3
20260503050059 60 0 0.0 0.0 0.00 0.00 0.00 71 1015.4
20260503045554 60 0 0.0 0.0 0.00 0.00 0.00 70 1015.3
20260503045055 60 0 0.0 0.0 0.00 0.00 0.00 69 1015.3
20260503044558 60 0 0.0 0.0 0.00 0.00 0.00 69 1015.3
20260503044055 60 0 0.0 0.0 0.00 0.00 0.00 69 1015.2
20260503043559 61 0 0.0 0.0 0.00 0.00 0.00 67 1015.1
20260503043059 61 0 0.0 0.0 0.00 0.00 0.00 66 1014.9
20260503042557 62 0 0.0 0.0 0.00 0.00 0.00 64 1014.9
20260503042055 62 0 0.0 0.0 0.00 0.00 0.00 64 1014.9
20260503041604 62 0 0.0 0.0 0.00 0.00 0.00 63 1014.8
20260503041054 63 0 0.0 0.0 0.00 0.00 0.00 62 1014.7
20260503040554 63 0 0.0 0.0 0.00 0.00 0.00 61 1014.6
20260503040058 64 0 0.0 0.0 0.00 0.00 0.00 60 1014.5
20260503035554 64 0 0.0 0.0 0.00 0.00 0.00 59 1014.5
20260503035054 65 0 0.0 0.0 0.00 0.00 0.00 58 1014.3
20260503034553 66 0 0.0 0.0 0.00 0.00 0.00 54 1014.3
20260503034054 67 0 0.0 0.0 0.00 0.00 0.00 53 1014.2
20260503033555 67 0 0.0 0.0 0.00 0.00 0.00 57 1014.2
20260503033054 68 0 0.0 0.0 0.00 0.00 0.00 49 1014.1
20260503032557 68 0 0.0 2.0 0.00 0.00 0.00 49 1014.1
20260503032055 69 0 0.0 2.0 0.00 0.00 0.00 48 1014.0
20260503031555 69 0 0.0 0.0 0.00 0.00 0.00 49 1014.0
20260503031055 69 0 0.0 0.0 0.00 0.00 0.00 48 1013.9
20260503030555 70 0 0.0 2.0 0.00 0.00 0.00 46 1014.0
20260503025554 70 0 0.0 3.0 0.00 0.00 0.00 45 1013.9
20260503025056 71 291 1.0 6.0 0.00 0.00 0.00 44 1013.9
20260503024556 71 0 0.0 7.0 0.00 0.00 0.00 44 1013.8
20260503024055 72 273 2.0 8.0 0.00 0.00 0.00 43 1013.8
20260503023555 72 260 0.0 8.0 0.00 0.00 0.00 43 1013.8
20260503023107 72 280 2.0 8.0 0.00 0.00 0.00 42 1013.9
20260503022554 72 261 3.0 7.0 0.00 0.00 0.00 42 1013.9
20260503022058 72 294 1.0 10.0 0.00 0.00 0.00 41 1013.8
20260503021601 73 341 4.0 10.0 0.00 0.00 0.00 41 1013.8
20260503021055 73 273 4.0 10.0 0.00 0.00 0.00 40 1013.8
20260503020555 73 264 3.0 10.0 0.00 0.00 0.00 40 1013.8
20260503020059 73 272 4.0 10.0 0.00 0.00 0.00 39 1013.9
20260503015553 73 0 4.0 11.0 0.00 0.00 0.00 39 1013.9
20260503015053 73 286 3.0 11.0 0.00 0.00 0.00 40 1013.9
20260503014602 74 294 5.0 11.0 0.00 0.00 0.00 39 1013.9
20260503014053 74 281 3.0 10.0 0.00 0.00 0.00 39 1014.0
20260503013557 73 341 4.0 12.0 0.00 0.00 0.00 39 1014.0
20260503013101 74 335 2.0 17.0 0.00 0.00 0.00 40 1014.1
20260503012555 74 333 7.0 17.0 0.00 0.00 0.00 40 1014.0
20260503012053 74 54 6.0 11.0 0.00 0.00 0.00 41 1014.0
20260503011614 74 355 3.0 11.0 0.00 0.00 0.00 48 1014.0
20260503011053 75 344 4.0 12.0 0.00 0.00 0.00 43 1013.9
20260503010554 75 242 5.0 12.0 0.00 0.00 0.00 44 1014.0
20260503010059 75 340 2.0 12.0 0.00 0.00 0.00 45 1014.2
20260503005557 75 251 5.0 12.0 0.00 0.00 0.00 45 1014.2
20260503005053 75 355 3.0 12.0 0.00 0.00 0.00 48 1014.3
20260503004558 75 315 6.0 12.0 0.00 0.00 0.00 47 1014.3
20260503004054 75 340 3.0 12.0 0.00 0.00 0.00 52 1014.2
20260503003554 75 285 5.0 12.0 0.00 0.00 0.00 48 1014.2
20260503003053 75 260 6.0 11.0 0.00 0.00 0.00 48 1014.2
20260503002554 75 257 3.0 10.0 0.00 0.00 0.00 48 1014.2
20260503002054 76 338 3.0 10.0 0.00 0.00 0.00 49 1014.2
20260503001553 75 302 2.0 12.0 0.00 0.00 0.00 49 1014.2
20260503001055 75 339 5.0 12.0 0.00 0.00 0.00 49 1014.4
20260503000554 76 273 5.0 10.0 0.00 0.00 0.00 55 1014.4
20260503000104 76 333 3.0 12.0 0.00 0.00 0.00 49 1014.4
20260502235555 76 312 5.0 12.0 0.00 0.00 0.00 50 1014.4
20260502235053 76 0 3.0 12.0 0.00 0.00 0.00 50 1014.5
20260502234602 76 271 5.0 12.0 0.00 0.00 0.00 51 1014.6
20260502234053 76 265 3.0 11.0 0.00 0.00 0.00 51 1014.6
20260502233554 75 340 4.0 11.0 0.00 0.00 0.00 51 1014.6
20260502233055 76 338 5.0 11.0 0.00 0.00 0.00 51 1014.7
20260502232553 76 268 3.0 11.0 0.00 0.00 0.00 51 1014.7
20260502232056 75 323 6.0 11.0 0.00 0.00 0.00 52 1014.7
20260502231554 76 349 4.0 13.0 0.00 0.00 0.00 53 1014.7
20260502231055 76 319 2.0 13.0 0.00 0.00 0.00 54 1014.8
20260502230553 75 280 5.0 13.0 0.00 0.00 0.00 53 1014.8
20260502230055 75 269 5.0 11.0 0.00 0.00 0.00 54 1015.0
20260502225554 75 321 6.0 11.0 0.00 0.00 0.00 54 1015.0
20260502225054 75 206 5.0 11.0 0.00 0.00 0.00 54 1015.2
20260502224555 75 259 5.0 11.0 0.00 0.00 0.00 54 1015.2
20260502224058 75 288 5.0 11.0 0.00 0.00 0.00 53 1015.3
20260502223555 75 327 4.0 11.0 0.00 0.00 0.00 54 1015.4
20260502223053 75 293 4.0 11.0 0.00 0.00 0.00 54 1015.5
20260502222555 75 243 4.0 10.0 0.00 0.00 0.00 54 1015.5
20260502222054 75 331 5.0 11.0 0.00 0.00 0.00 54 1015.5
20260502221613 75 275 5.0 11.0 0.00 0.00 0.00 54 1015.6
20260502221054 75 255 4.0 11.0 0.00 0.00 0.00 52 1015.7
20260502220554 75 352 3.0 10.0 0.00 0.00 0.00 53 1015.7
20260502220108 76 316 4.0 10.0 0.00 0.00 0.00 53 1015.7
20260502215554 75 238 4.0 10.0 0.00 0.00 0.00 53 1015.7
20260502215055 75 5 2.0 10.0 0.00 0.00 0.00 60 1015.8
20260502214557 75 279 3.0 11.0 0.00 0.00 0.00 52 1015.8
20260502214055 73 355 1.0 11.0 0.00 0.00 0.00 56 1015.8
20260502213558 74 196 5.0 11.0 0.00 0.00 0.00 54 1015.9
20260502213100 75 263 4.0 9.0 0.00 0.00 0.00 55 1015.9
20260502212552 74 346 3.0 9.0 0.00 0.00 0.00 54 1016.1
20260502212058 74 324 2.0 9.0 0.00 0.00 0.00 56 1016.0
20260502211600 73 319 5.0 9.0 0.00 0.00 0.00 63 1016.1
20260502211056 73 227 4.0 9.0 0.00 0.00 0.00 57 1016.2
20260502210557 73 331 3.0 9.0 0.00 0.00 0.00 56 1016.3
20260502210120 73 352 3.0 9.0 0.00 0.00 0.00 56 1016.2
20260502205557 73 254 1.0 11.0 0.00 0.00 0.00 60 1016.3
20260502205054 71 360 5.0 11.0 0.00 0.00 0.00 61 1016.3
20260502204601 71 225 5.0 11.0 0.00 0.00 0.00 61 1016.3
20260502204054 71 253 4.0 11.0 0.00 0.00 0.00 60 1016.4
20260502203554 70 196 4.0 10.0 0.00 0.00 0.00 61 1016.3
20260502203056 70 264 3.0 10.0 0.00 0.00 0.00 62 1016.4
20260502202554 70 209 4.0 11.0 0.00 0.00 0.00 62 1016.5
20260502202057 70 227 4.0 12.0 0.00 0.00 0.00 62 1016.6
20260502201556 71 245 3.0 12.0 0.00 0.00 0.00 63 1016.7
20260502201056 71 242 6.0 12.0 0.00 0.00 0.00 68 1016.7
20260502200557 72 340 3.0 9.0 0.00 0.00 0.00 61 1016.7
20260502200124 71 351 3.0 10.0 0.00 0.00 0.00 60 1016.6
20260502195554 71 286 4.0 10.0 0.00 0.00 0.00 60 1016.8
20260502195054 71 233 6.0 10.0 0.00 0.00 0.00 60 1016.7
20260502194558 70 313 3.0 10.0 0.00 0.00 0.00 61 1016.6
20260502194054 70 215 4.0 10.0 0.00 0.00 0.00 60 1016.7
20260502193554 70 355 2.0 10.0 0.00 0.00 0.00 69 1016.7
20260502193100 70 343 3.0 11.0 0.00 0.00 0.00 61 1016.7
20260502192555 70 315 3.0 11.0 0.00 0.00 0.00 63 1016.7
20260502192055 68 319 3.0 11.0 0.00 0.00 0.00 65 1016.8
20260502191603 68 342 3.0 10.0 0.00 0.00 0.00 64 1016.9
20260502191057 68 232 3.0 10.0 0.00 0.00 0.00 65 1017.0
20260502190556 69 294 2.0 8.0 0.00 0.00 0.00 71 1017.0
20260502190057 68 277 2.0 8.0 0.00 0.00 0.00 66 1017.2
20260502185554 68 323 4.0 8.0 0.00 0.00 0.00 65 1017.2